Regional Weather Roundup
Issued by NWS

Home | Current Version | Previous Version | Graphics & Text | Print | Product List | Glossary On
Versions: 1 2 3 4 5 6 7 8 9 10 11 12 13 14 15 16 17 18 19 20 21 22 23 24 25 26 27 28 29 30 31 32 33 34 35 36 37 38 39 40 41 42 43 44 45 46 47 48 49 50
000
ASUS43 KMKX 251134
RWRWI

WISCONSIN REGIONAL WEATHER ROUNDUP
NATIONAL WEATHER SERVICE MILWAUKEE/SULLIVAN WI
700 AM CDT MON MAY 25 2015

NOTE: "FAIR" INDICATES FEW OR NO CLOUDS BELOW 12,000 FEET WITH NO
SIGNIFICANT WEATHER AND/OR OBSTRUCTIONS TO VISIBILITY.

WIZ001-002-006>008-014>016-023>028-251300-
NORTHWEST WISCONSIN

CITY           SKY/WX    TMP DP  RH WIND       PRES   REMARKS
SUPERIOR ARPT  DRIZZLE   48  48  99 E9G16     29.75F
ASHLAND        RAIN      54  54 100 NE13      29.76F FOG
HAYWARD        LGT RAIN  58  55  90 NE8       29.72F
SIREN          CLOUDY    57  56  97 E5        29.70F
CUMBERLAND     RAIN      54  54 100 CALM      29.70F
RICE LAKE      RAIN      56  55  94 CALM      29.71F
CHETEK         CLOUDY    56  56  99 CALM      29.70F
LADYSMITH      CLOUDY    57  56  98 E5        29.73F FOG
EAU CLAIRE     LGT RAIN  57  56  96 CALM      29.68F FOG
MENOMONIE      DRIZZLE   57  57  99 CALM      29.68F
NEW RICHMOND   RAIN      56  56 100 E6        29.68F
OSCEOLA        DRIZZLE   57  57 100 E6        29.71F
$$

WIZ003>005-009-010-017-018-251300-
NORTH CENTRAL WISCONSIN

CITY           SKY/WX    TMP DP  RH WIND       PRES   REMARKS
MANITOWISH WTR RAIN      55  55 100 E6        29.76S
ARBOR VITAE    DRIZZLE   57  55  95 SE12G17   29.75F
WOODRUFF       DRIZZLE   57  55  95 SE12G17   29.75F
RHINELANDER    LGT RAIN  56  55  97 E10       29.77S FOG
EAGLE RIVER    LGT RAIN  55  55  99 SE12      29.77F
LAND O LAKES   LGT RAIN  56  55  97 E8G16     29.79F
PHILLIPS       HVY RAIN  55  55 100 CALM      29.73F
TOMAHAWK       DRIZZLE   56  55  97 SE5       29.76F
MEDFORD        FOG       57  57 100 SE7       29.72F VSB 1/4
MERRILL        CLOUDY    57  57 100 SE7       29.76S FOG
$$

WIZ029-030-035-036-043>047-251300-
CENTRAL WISCONSIN

CITY           SKY/WX    TMP DP  RH WIND       PRES   REMARKS
WAUSAU         CLOUDY    58  58 100 SE5       29.74F FOG
MOSINEE        DRIZZLE   57  57 100 SE7       29.76F
MARSHFIELD     LGT RAIN  61  59  93 SE8       29.73F VSB 1/2
STEVENS POINT  LGT RAIN  57  57 100 E5        29.75F
WAUPACA        RAIN      61  60  97 CALM      29.76F
WAUTOMA        FOG       63  63 100 CALM      29.75F VSB 1
WISC RAPIDS    LGT RAIN  62  59  90 SE5       29.75F
CAMP DOUGLAS   LGT RAIN  61  61 100 E6        29.71S FOG
$$

WIZ011>013-019>022-031-037>040-048>050-251300-
NORTHEAST WISCONSIN

CITY           SKY/WX    TMP DP  RH WIND       PRES   REMARKS
ANTIGO         DRZL/FOG  55  55 100 SE10      29.78F VSB 1/4
SHAWANO        DRIZZLE   60  58  96 E5        29.79F
OCONTO         CLOUDY    55  55 100 CALM      29.79F
STURGEON BAY   CLOUDY    55  50  82 SE9       29.84S
GREEN BAY      LGT RAIN  58  57  97 NE5       29.79F FOG
MANITOWOC      LGT RAIN  51  50  96 SE6       29.82S VSB 1/4
APPLETON       LGT RAIN  61  61 100 VRB5      29.78F FOG
CLINTONVILLE   RAIN      59  57  94 CALM      29.77F
OSHKOSH        CLOUDY    64  61  90 SE5       29.76F FOG
$$

WIZ032>034-041-042-053>061-251300-
SOUTHWEST WISCONSIN

CITY           SKY/WX    TMP DP  RH WIND       PRES   REMARKS
LA CROSSE      CLOUDY    63  61  93 S3        29.69S FOG
SPARTA         CLOUDY    64  62  94 CALM      29.71F
VIROQUA        CLOUDY    64  64 100 S6        29.73R
BOSCOBEL       CLOUDY    63  62  97 CALM      29.72R FOG
PRAIRIE DU CHI DRIZZLE   65  63  93 CALM      29.72R
PLATTEVILLE    CLOUDY    65  64  97 SW10      29.73R
$$

WIZ056-057-062-063-064-067-068-251300-
SOUTH CENTRAL WISCONSIN

CITY           SKY/WX    TMP DP  RH WIND       PRES   REMARKS
REEDSBURG      RAIN      63  63 100 CALM      29.72F
BARABOO/DELLS  HVY RAIN  64  62  94 SE5       29.72F
LONE ROCK      LGT RAIN  65  64  97 E5        29.72S FOG
MINERAL POINT  RAIN      64  64 100 S3        29.73S
MADISON        LGT RAIN  67  64  90 S15       29.74S FOG
MIDDLETON      CLOUDY    67  67  98 SE9       29.73F
WATERTOWN      CLOUDY    65  65 100 SE6       29.77F
MONROE         DRIZZLE   64  63  94 S17G24    29.73F
JANESVILLE     CLOUDY    66  64  94 S14       29.76F
$$

WIZ051-052-058>065-066-070>072-251300-
SOUTHEAST WISCONSIN

CITY           SKY/WX    TMP DP  RH WIND       PRES   REMARKS
MILWAUKEE      CLOUDY    57  55  93 SE5       29.82F FOG
WAUKESHA       CLOUDY    61  61 100 SE7       29.81F FOG
MILWAUKEE/TIMM CLOUDY    55  54  94 SE3       29.82S FOG
RACINE         CLOUDY    55  52  89 CALM      29.84S FOG
BURLINGTON     CLOUDY    63  63  99 S9        29.80F
KENOSHA        CLOUDY    69  61  75 S13G21    29.82S
FOND DU LAC    CLOUDY    65  62  90 S7        29.77F
SHEBOYGAN      FOG       55  54  96 S3        29.81S VSB 1/4
WEST BEND      CLOUDY    61  59  94 SE5       29.80F FOG
JUNEAU         CLOUDY    64  63  98 SE9       29.78F
$$

LSZ147-162-251300-
LAKE SUPERIOR

STATION/POSITION TIME  TEMP    WIND        PRES    WAVE
                       AIR SEA DIR/SP/G            HT/PER
                 (UTC) (F)     (DEG/KT/KT) (MB)    (FT/S)
W MID LAKE BUOY  1050   42 37   40/ 10/ 12   N/A     0
DEVILS ISLAND    1100   45      50/ 20/ 23 1088.0
PORT WING        1000   47      30/ 15/ 17 1088.0
SAXON HARBOR     1040   51      40/  6/ 10 1075.0
$$

LMZ867-665-643>646-251300-
LAKE MICHIGAN

STATION/POSITION TIME  TEMP    WIND        PRES    WAVE
                       AIR SEA DIR/SP/G            HT/PER
                 (UTC) (F)     (DEG/KT/KT) (MB)    (FT/S)
CHAMBERS ISLAND  1000   55      90/  6/  8   N/A
N MID LAKE BUOY  1050   44 36  110/ 12/ 12   N/A     1/ 3
NORTHPORT PIER   1000   50     110/ 11/ 14   N/A
SISTER BAY       1017   52     120/  9/ 15   N/A
KEWAUNEE LAKESHO 1100   48     170/ 10/ 12 1089.0
SHEBOYGAN LAKESH 1100   49     180/  9/ 10   N/A
PORT WASHINGTON  1000   50     210/  3/  4   N/A
ATWATER BUOY     1100   49 47  160/  6/  8   N/A
MILWAUKEE LAKESH 1100   50     150/  3/  3   N/A
S MID LAKE BUOY  1050   49 38  170/ 14/ 16   N/A     1/ 3
KENOSHA   LAKESH 1100   58     170/ 11/ 15   N/A
$$

TC  - TEMPERATURE IN CELSIUS
VSB - VISIBILITY IN STATUTE MILES
WCI - WIND CHILL INDEX
HX  - HEAT INDEX



USA.gov is the U.S. government's official web portal to all federal, state and local government web resources and services.